Regional Weather Roundup
Issued by NWS

Home | Current Version | Previous Version | Text Only | Print | Product List | Glossary Off
Versions: 1 2 3 4 5 6 7 8 9 10 11 12 13 14 15 16 17 18 19 20 21 22 23 24 25 26 27 28 29 30 31 32 33 34 35 36 37 38 39 40 41 42 43 44 45 46 47 48 49 50

000
ASUS43 KMKX 211510
RWRWI

WISCONSIN REGIONAL WEATHER ROUNDUP
NATIONAL WEATHER SERVICE MILWAUKEE/SULLIVAN WI
900 AM CST SUN JAN 21 2018

NOTE: "FAIR" INDICATES FEW OR NO CLOUDS BELOW 12,000 FEET WITH NO
SIGNIFICANT WEATHER AND/OR OBSTRUCTIONS TO VISIBILITY.

WIZ001-002-006>008-014>016-023>028-211600-
NORTHWEST WISCONSIN

CITY           SKY/WX    TMP DP  RH WIND       PRES   REMARKS
SUPERIOR ARPT  FAIR      22  22  98 CALM      30.01R
ASHLAND        FOG       23  23 100 SW3       30.00R VSB<1/4
HAYWARD        CLOUDY    27  25  92 CALM      29.98R FOG
SIREN          CLOUDY    29  28  94 CALM      29.99R
CUMBERLAND     CLOUDY    32  27  80 N5        29.97R WCI  27
RICE LAKE      CLOUDY    32  30  91 NW3       29.99R
CHETEK         CLOUDY    32  28  86 NW3       29.98R
LADYSMITH      CLOUDY    33  30  90 N5        29.99R WCI  28
EAU CLAIRE     CLOUDY    29  29 100 CALM      29.98R FOG
MENOMONIE      CLOUDY    31  30  96 CALM      29.98R FOG
NEW RICHMOND   CLOUDY    31  30  97 N3        29.98R
OSCEOLA        CLOUDY    32  32 100 CALM      30.01S
$$

WIZ003>005-009-010-017-018-211600-
NORTH CENTRAL WISCONSIN

CITY           SKY/WX    TMP DP  RH WIND       PRES   REMARKS
MANITOWISH WTR FAIR      25  25 100 CALM      29.95S FOG
ARBOR VITAE    CLOUDY    30  29  95 CALM      29.95R FOG
WOODRUFF       CLOUDY    30  29  95 CALM      29.95R FOG
RHINELANDER    CLOUDY    33  30  88 N3        29.96R FOG
EAGLE RIVER    FAIR      27  27 100 CALM      29.95R FOG
LAND O LAKES   PTSUNNY   27  26  99 CALM      29.97R
PHILLIPS       CLOUDY    29  29 100 CALM      29.96R
TOMAHAWK       CLOUDY    31  29  94 CALM      29.96R
MEDFORD        CLOUDY    32  29  89 NE6       29.94R WCI  26
MERRILL        CLOUDY    29  29  99 CALM      29.95S FOG
$$

WIZ029-030-035-036-043>047-211600-
CENTRAL WISCONSIN

CITY           SKY/WX    TMP DP  RH WIND       PRES   REMARKS
WAUSAU         CLOUDY    31  29  92 CALM      29.94R FOG
MOSINEE        PTSUNNY   30  30 100 CALM      29.96R
MARSHFIELD     PTSUNNY   28  27  96 E5        29.93S FOG     WCI  23
STEVENS POINT  FAIR      26  26 100 CALM      29.96S FOG
WAUPACA        FAIR      28  26  94 CALM      29.97S FOG
WAUTOMA        FOG       26  25  96 CALM      29.98R VSB<1/4
WISC RAPIDS    FAIR      27  26  96 CALM      29.97R FOG
CAMP DOUGLAS   FAIR      25  25  99 CALM      29.96R
$$

WIZ011>013-019>022-031-037>040-048>050-211600-
NORTHEAST WISCONSIN

CITY           SKY/WX    TMP DP  RH WIND       PRES   REMARKS
ANTIGO         CLOUDY    31  29  92 CALM      29.95R
SHAWANO        CLOUDY    31  30  94 CALM      29.97R
OCONTO         CLOUDY    31  29  93 CALM      29.99R
STURGEON BAY   CLOUDY    34  32  92 CALM      29.99R FOG
GREEN BAY      FAIR      30  29  96 CALM      29.97S FOG
MANITOWOC      FAIR      30  29  96 SE7       29.99R FOG     WCI  23
APPLETON       FOG       28  28 100 CALM      29.95R VSB 1
CLINTONVILLE   FAIR      27  27 100 CALM      29.97S FOG
OSHKOSH        FOG       29  28  96 S8        29.97R VSB 1/4 WCI  21
$$

WIZ032>034-041-042-053>061-211600-
SOUTHWEST WISCONSIN

CITY           SKY/WX    TMP DP  RH WIND       PRES   REMARKS
LA CROSSE      FOG       26  25  96 CALM      29.97S VSB<1/4
SPARTA         FOG       22  22  98 CALM      29.98R VSB 1/4
VIROQUA        PTSUNNY   31  31 100 CALM      29.93S VSB 1/4
BOSCOBEL       FOG       29  27  92 E3        29.97S VSB<1/4
PRAIRIE DU CHI FOG       29  28  96 CALM      29.96S VSB 1/4
PLATTEVILLE    FAIR      35  35 100 NE7       29.94S WCI  29
$$

WIZ056-057-062-063-064-067-068-211600-
SOUTH CENTRAL WISCONSIN

CITY           SKY/WX    TMP DP  RH WIND       PRES   REMARKS
REEDSBURG      FOG       26  26 100 CALM      29.96R VSB<1/4
BARABOO/DELLS  FAIR      28  28  99 CALM      29.96R FOG
LONE ROCK      FOG       29  29 100 CALM      29.96S VSB<1/4
MINERAL POINT  CLOUDY    36  36 100 E3        29.94R FOG
MADISON        CLOUDY    33  32  96 NW3       29.97R FOG
MIDDLETON      CLOUDY    34  34 100 CALM      29.96S
WATERTOWN      CLOUDY    33  33 100 CALM      29.96S FOG
MONROE         FOG       32  32 100 NE5       29.94R VSB 1/4 WCI  27
JANESVILLE     CLOUDY    36  36 100 CALM      29.95R FOG
$$

WIZ051-052-058>065-066-070>072-211600-
SOUTHEAST WISCONSIN

CITY           SKY/WX    TMP DP  RH WIND       PRES   REMARKS
MILWAUKEE      CLOUDY    36  35  96 CALM      29.98R FOG
WAUKESHA       CLOUDY    32  32 100 CALM      29.98R FOG
MILWAUKEE/TIMM CLOUDY    36  34  93 CALM      29.99R FOG
RACINE         CLOUDY    37  35  92 N3        30.00R FOG
BURLINGTON     PTSUNNY   35  33  93 CALM      29.97S FOG
KENOSHA        CLOUDY    39  36  89 CALM      29.97R FOG
FOND DU LAC    FOG       31  30  96 CALM      29.97S VSB<1/4
SHEBOYGAN      FOG       31  31 100 SW5       29.98S VSB<1/4 WCI  26
WEST BEND      FOG       32  32 100 CALM      29.97S VSB<1/4
JUNEAU         FOG       31  30  99 CALM      29.98R VSB<1/4
$$

LSZ147-162-211600-
LAKE SUPERIOR

STATION/POSITION TIME  TEMP    WIND        PRES    WAVE
                       AIR SEA DIR/SP/G            HT/PER
                 (UTC) (F)     (DEG/KT/KT) (MB)    (FT/S)
DEVILS ISLAND    1500   29      50/  4/  5 1016.9R
SAXON HARBOR     1430   27     220/  1/  2 1015.2R
$$

LMZ867-665-643>646-211600-
LAKE MICHIGAN

STATION/POSITION TIME  TEMP    WIND        PRES    WAVE
                       AIR SEA DIR/SP/G            HT/PER
                 (UTC) (F)     (DEG/KT/KT) (MB)    (FT/S)
NORTHPORT PIER   1505   36      CALM  /  5 1015.6
KEWAUNEE LAKESHO 1442   31     300/  5/  5 1014.3S
SHEBOYGAN LAKESH 1500   32     250/  8/  9 1015.9S
PORT WASHINGTON  1440   37     290/  4/  6 1016.3S
MILWAUKEE LAKESH 1450   34        CALM       N/A
KENOSHA   LAKESH 1500   35        CALM     1015.2
$$

TC  - TEMPERATURE IN CELSIUS
VSB - VISIBILITY IN STATUTE MILES
WCI - WIND CHILL INDEX
HX  - HEAT INDEX





USA.gov is the U.S. government's official web portal to all federal, state and local government web resources and services.